Погода в Витебске

Погода в Витебске : погода сейчас, прогноз погоды и архив. Всё, что Вы хотите узнать о погоде в Витебске!

Поиск расширенной информации на нашем сайте:

Другие новости

Новости СМИ2

Главная страница сайта

Новости сайта

03.07.2017

Напоминаем, что на нашем специализированном сайте Метеоцентр.Азия вы можете получить высокодетализированные автоматические прогнозы погоды по пунктам России, СНГ и мира в авиационном формате (включающие направление и скорость ветра, видимость, явления погоды, количество и форму облачности, нижнюю и верхнюю границу облачности).

Рекомендуем: Изготовление информационных табличек изготовление табличек ростов.

Погода в Витебске - сегодня

Время (UTC), дата Ветер
(°,м/с) 
Видим.   Явления Облачность Т
(°С)
Тd
(°С)
f(%) Тe
(°С)
Pmin
(гПа)
dP
(гПа)
Po
(мм)
O2
(г/м3)
Тmin Tmax R s Состояние
почвы
03 19.09.17 250 (З) 5-10{16}  5000 м  слаб. дождь  10/10 270 м 
[Frnb]
+9.5 +8.1 91 +8  1005.9  4.5  739  286         
06 19.09.17 240 (ЮЗ) 4{15}  10 км  {дождь}  8/5 300 м средняя 
[St|Ac As]
+9.8 +7.3 84 +9  1010.3  4.3  742  287  +9.5       
09 19.09.17 240 (ЮЗ) 3{13}  10 км    9/9 540 м 
[Sc]
+12.4 +7.7 73 +12  1013  2.9  744  285           
12 19.09.17 240 (ЮЗ) 3{10}  10 км    9/9 870 м 
[Sc]
+14.1 +7.4 64 +14  1015.2  2.2  746  285           
15 19.09.17 240 (ЮЗ) 10 км    8/5 1000 м средняя 
[Sc|Ac trans]
+13.8 +8.2 69 +14  1016.5  1.2  747  285           
18 19.09.17 230 (ЮЗ) 10 км    3/3 1000 м 
[Sc]
+11.5 +8 79 +12  1018.1  1.5  748  288    +14.7       
21 19.09.17 220 (ЮЗ) 10 км    ясно 
+11.1 +7.6 79 +11  1019.4  1.1  749  289           
00 20.09.17 тихо ()   10 км    9/0 средняя 
[Ac trans]
+9.9 +7.6 86 +10  1020.2  0.7  749  290           
03 20.09.17 170 (Ю) 10 км    8/0 средняя, верхняя 
[Ac As|Ci fib]
+9.5 +7.1 85 +11  1020.5  0.3  749  291           
06 20.09.17 170 (Ю) 10 км    8/0 средняя 
[Ac As]
+11.1 +7.8 80 +12  1021.4  750  289  +8.5         
09 20.09.17 160 (Ю) 10 км    10/0 средняя 
[Ac As]
+13.6 +8.2 70 +15  1021.9  0.7  751  287           
12 20.09.17 020 (С) 10 км  {ливн. осадки}  10/5 1000 м средняя 
[Sc|Ac As]
+13.1 +10.6 85 +16  1021.8  -0.1  751  287      0.4     
15 20.09.17 070 (В) 10 км  {ливн. осадки}  9/4 1000 м средняя 
[Sc|Ac trans]
+13.1 +11.2 88 +17  1021.3  -0.5  750  286      0.7     
18 20.09.17 050 (СВ) 10 км  {ливн. осадки}  8/0 средняя 
[Ac trans]
+12 +10.4 90 +14  1021.5  0.1  750  288    +14  0.7     
21 20.09.17 050 (СВ) 10 км    8/0 средняя 
[Ac trans]
+11.4 +9.8 90 +13  1021.7  0.2  750  288           
00 21.09.17 050 (СВ) 8000 м  дымка  ясно 
+9.5 +8.5 93 +11  1021.9  750  291           
03 21.09.17 050 (СВ) 10 км    9/6 960 м средняя 
[Sc|Ac trans]
+10.3 +8.5 89 +10  1021.5  -0.3  750  290           
06 21.09.17 060 (СВ) 3{10}  10 км    9/0 средняя, верхняя 
[Ac trans|Ci fib]
+11.8 +9 83 +12  1021.3  -0.1  750  288  +9.3         
09 21.09.17 060 (СВ) 5-12{13}  10 км  в посл. час ливневой дождь  9/4 600 м кучево-дожд., средняя 
[Cb cap|Ac As]
+12.9 +9.4 79 +12  1019.1  -2.1  749  286      0.0     
12 21.09.17 060 (СВ) 5-12{14}  10 км  в посл. час ливневой дождь  9/3 1000 м средняя, верхняя 
[Cu med, cong|Ac As|Ci]
+14.9 +9 68 +14  1018.1  -0.8  748  284      0.0     
15 21.09.17 050 (СВ) 4-10{16}  10 км  {ливн. осадки}  9/4 1000 м средняя, верхняя 
[Sc|Ac lent|Ci]
+15.2 +9.7 70 +16  1017.1  -0.9  747  283      0.0     
18 21.09.17 060 (СВ) 5-12{14}  10 км  {ливн. осадки}  8/8 1170 м 
[Sc]
+15.1 +9.3 68 +15  1017.6  0.4  748  284    +16.2  0.0     
21 21.09.17 040 (СВ) 3{15}  10 км  {ливн. осадки}  9/9 1230 м 
[Sc]
+14.6 +9.3 70 +15  1019.5  1.8  749  285      0.0     
00 22.09.17 050 (СВ) 4{11}  10 км  {ливн. осадки}  8/0 средняя 
[Ac trans]
+13.1 +9.2 77 +13  1020.8  1.2  750  287           
03 22.09.17 060 (СВ) 5-10{11}  10 км    8/0 средняя, верхняя 
[Ac cast|Ci fib]
+11.3 +8.5 83 +10  1021.8  0.9  751  289      0.0     
Время (UTC), дата Ветер
(°,м/с) 
Видим.   Явления Облачность Т
(°С)
Тd
(°С)
f(%) Тe
(°С)
Pmin
(гПа)
dP
(гПа)
Po
(мм)
O2
(г/м3)
Тmin Tmax R s Состояние
почвы

Для получения пояснительной информации подведите курсор к названию столбца.

ПОГОДА в Витебске - архив

Всё, что Вы хотите узнать о погоде в Витебске - удобно и подробно!

Выберите нужную дату (начиная с 1 января 2015* года) и нажмите кнопку "Найти".
Будут отображены архивные сводки погоды по пункту Витебск, начиная с указанной даты.


Отображать данные в формате CSV (для использования в таблицах Excel)


Внимание! Наш архив погоды предназначен исключительно для личного некоммерческого использования в познавательных целях. Если Вам необходимы официальные справки о состоянии погоды (для производственных, юридических, коммерческих и т.п. целей), обращайтесь в органы Росгидромета.

*Примечание: данная дата относится к архиву по метеостанциям СССР (Россия, СНГ, Балтия).
Архив по метеостанциям Зарубежной Европы и Азии (кроме Китая) хранится 10 дней, по другим регионам земного шара (Китай, Африка, Америка, Австралия, Океания) - 1 день.

Витебск - район местоположения метеостанции


Название, широта, долгота, высота метеостанции:
Витебск (город) 55.1°ш. 30.3°д. 170 м над ур. моря [Беларусь]

Дополнительная информация

В oтличие oт бoльшинства пoгoдных сайтoв мы публикуем пoдрoбную метеoинфoрмацию в детальнoм прoфессиoнальнoм фoрмате.

Характеристики температуры и влажнoсти вoздуха измеряются на высoте 2 м в тени вдали oт зданий и деревьев.
Скoрoсть ветра измеряется на высoте 10 м (на урoвне рoста челoвека скoрoсть ветра ниже в 1.5-2 раза). Если метеoстанция нахoдится в гoрoде или в лесу, тo скoрoсть ветра занижена на 2-4 м/с пo сравнению с oткрытым местoм. Скoрoсть ветра над акватoриями крупных рек и oзёр, а также на вершинах хoлмoв на 2-5 м/с выше, чем в oбычных услoвиях.
Атмoсфернoе давление в разных тoчках местнoсти мoжет значительнo oтличаться oт давления на метеoстанции, в зависимoсти oт услoвий рельефа (при пoдъёме на 10 м давление пoнижается примернo на 1 мм рт.ст.).